Regional Weather Roundup
Issued by NWS

Home | Current Version | Previous Version | Graphics & Text | Print | Product List | Glossary On
Versions: 1 2 3 4 5 6 7 8 9 10 11 12 13 14 15 16 17 18 19 20 21 22 23 24 25 26 27 28 29 30 31 32 33 34 35 36 37 38 39 40 41 42 43 44 45 46 47 48 49 50
000
ASUS43 KLOT 191003
RWRIL

ILLINOIS REGIONAL WEATHER ROUNDUP
NATIONAL WEATHER SERVICE CHICAGO/ROMEOVILLE IL
400 AM CST SUN NOV 19 2017

NOTE: "FAIR" INDICATES FEW OR NO CLOUDS BELOW 12,000 FEET WITH NO
SIGNIFICANT WEATHER AND/OR OBSTRUCTIONS TO VISIBILITY.

* THESE STATIONS ARE NOT UNDER NWS QUALITY CONTROL. THEY ALSO MAY NOT
  REPORT WEATHER SUCH AS PRECIPITATION OR FOG.

ILZ001-002-007-009-015-016-024-191100-
NORTHWEST ILLINOIS

CITY           SKY/WX    TMP DP  RH WIND       PRES   REMARKS
MOLINE         CLEAR     26  16  65 NW15G21   30.06R WCI  14
STERLING*      CLOUDY    27  21  78 NW10      30.00  WCI  17
SAVANNA*       CLEAR     27  19  72 W10G18    29.99F WCI  17
$$

ILZ003-004-008-010-011-017-018-191100-
NORTH CENTRAL ILLINOIS

CITY           SKY/WX    TMP DP  RH WIND       PRES   REMARKS
ROCKFORD       CLOUDY    29  22  75 NW8       29.97S WCI  21
FREEPORT*      CLOUDY    26  19  75 W13       29.99S WCI  15
ROCHELLE*      CLOUDY    29  22  75 NW12      29.98R WCI  19
DE KALB*       MOCLDY    29  23  78 NW20      29.96R WCI  16
$$

ILZ005-006-012>014-019>023-191100-
NORTHEAST ILLINOIS

CITY           SKY/WX    TMP DP  RH WIND       PRES   REMARKS
CHICAGO-OHARE  CLOUDY    33  22  63 NW15      29.91R WCI  23
CHICAGO-MIDWAY CLOUDY    34  24  67 NW12      29.92R WCI  25
AURORA         MOCLDY    30  23  75 NW17G26   29.96R WCI  18
LANSING*       CLOUDY    34  26  72 NW8       29.92R WCI  27
JOLIET*        CLOUDY    33  26  75 NW13G18   29.95R WCI  24
WAUKEGAN       CLOUDY    32  22  66 NW12G17   29.90R WCI  23
DUPAGE AIRPORT CLOUDY    31  24  75 NW17G23   29.93R WCI  19
KANKAKEE*      CLOUDY    34  29  81 W14G21    29.95R WCI  24
WHEELING       CLOUDY    33  20  58 NW18G29   29.93R WCI  22
MORRIS*        CLOUDY    31  26  81 NW16      29.96R WCI  20
ROMEOVILLE*    CLOUDY    32  26  76 NW20      29.93R WCI  20
NORTHERLY ISL    N/A     34  22  61 NW14        N/A  WCI  25
$$

LMZ740>746-191100-
SOUTHERN LAKE MICHIGAN

STATION/POSITION SKY/WX   TEMP    WIND        PRES    VSBY  WAVE
                          AIR SEA DIR/SP/G                  HT/PER
                          (F)     (DEG/KT/KT) (MB)    (MI)  (FT/S)
SOUTHERN BUOY              37 49  330/ 21/ 25 1010.8          7/ 8
HARRISON CRIB              34     300/ 23/ 25   N/A
BURNHAM HARBOR             34     300/  9/ 19   N/A
BURNS HARBOR               37     300/ 21/ 26 1012.5R
MICHIGAN CITY              37     280/ 26/ 29   N/A
$$

ILZ025>027-034>036-040-047-049-050-058-095>099-191100-
WEST-CENTRAL ILLINOIS

CITY           SKY/WX    TMP DP  RH WIND       PRES   REMARKS
QUINCY         CLEAR     29  20  69 NW18G25   30.10S WCI  16
GALESBURG*     CLEAR     25  20  81 W13       30.06F WCI  14
MACOMB*        CLEAR     26  20  77 NW13      30.10S WCI  15
JACKSONVILLE*  CLEAR     29  19  67 NW17      30.08F WCI  17
PITTSFIELD*    CLEAR     31  22  71 NW9       30.11S WCI  22
$$

ILZ028>032-037-038-041>044-048-051>054-059>061-191100-
CENTRAL ILLINOIS

CITY           SKY/WX    TMP DP  RH WIND       PRES   REMARKS
PONTIAC        CLOUDY    31  29  92 W16G25    30.00R WCI  19
BLOOMINGTON    CLOUDY    29  23  78 NW22G29   30.02R WCI  15
DECATUR        CLOUDY    31  23  72 NW16G26   30.04R WCI  20
PEORIA         CLEAR     27  20  75 NW12G20   30.05R WCI  17
LACON*         CLEAR     27  22  82 W15G22    30.03R WCI  15
LINCOLN*       CLEAR     30  23  76 NW10G20   30.05R WCI  21
SPRINGFIELD    CLEAR     30  20  66 NW16G26   30.07R WCI  19
TAYLORVILLE    CLEAR     30  22  72 NW13      30.06S WCI  20
$$

ILZ033-039-045-046-055>057-062-063-191100-
EAST-CENTRAL ILLINOIS

CITY           SKY/WX    TMP DP  RH WIND       PRES   REMARKS
CHAMPAIGN      CLOUDY    33  27  78 W15       30.00R WCI  23
DANVILLE*      CLOUDY    33  29  86 W14G21    29.94R WCI  23
RANTOUL*       CLOUDY    34  29  82 W14G20    29.99R WCI  25
MATTOON        CLOUDY    32  28  85 W15       30.01R WCI  22
PARIS*         CLOUDY    32  29  90 W16G22    30.00R WCI  21
$$

ILZ079-100>102-191100-
SOUTHWEST ILLINOIS

CITY           SKY/WX    TMP DP  RH WIND       PRES   REMARKS
ALTON          CLEAR     31  24  74 NW8       30.10S WCI  23
BELLEVILLE     CLEAR     33  22  64 NW15G22   30.09S WCI  22
CAHOKIA*       CLEAR     34  22  61 NW17      30.11S WCI  23
SPARTA*        PTCLDY    33  24  70 NW5       30.11R WCI  29
$$

ILZ064>066-069>071-074>076-080>082-084>086-088>090-092>094-191100-
SOUTH-CENTRAL ILLINOIS

CITY           SKY/WX    TMP DP  RH WIND       PRES   REMARKS
CARBONDALE     PTCLDY    35  23  61 NW13G20   30.10R WCI  26
CAIRO*         CLEAR     37  24  59 NW13      30.11R WCI  29
EFFINGHAM*     CLOUDY    33  27  78 W14G24    30.06R WCI  23
MARION         CLEAR     36  27  68 NW3       30.10R
MT. VERNON     CLEAR     33  24  69 NW5       30.08R WCI  29
CENTRALIA*     CLEAR     33  26  73 NW12G20   30.07R WCI  25
SALEM*         CLEAR     33  24  67 NW12      30.07R WCI  25
METROPOLIS*    PTCLDY    37  29  72 W8        30.09R WCI  31
$$

ILZ067-068-072-073-078-083-087-091-191100-
SOUTHEAST ILLINOIS

CITY           SKY/WX    TMP DP  RH WIND       PRES   REMARKS
LAWRENCEVILLE  CLOUDY    36  29  75 W15       30.03R WCI  27
FLORA*         CLOUDY    35  27  74 NW14      29.94R WCI  25
FAIRFIELD*     PTCLDY    33  27  76 NW3       30.06R
HARRISBURG*    PTCLDY    35  27  74 NW12G18   30.08R WCI  26
ROBINSON*      CLOUDY    34  29  83 W14       30.03R WCI  25
CARMI*         CLOUDY    36  31  81 NW9       30.05S WCI  29
$$

ABBREVIATIONS USED IN REMARKS
   TC - TEMPERATURE IN CELSIUS
  WCI - WIND CHILL INDEX
   HX - HEAT INDEX
  VSB - VISIBILITY
$$




USA.gov is the U.S. government's official web portal to all federal, state and local government web resources and services.